CAPE
1381 1381 1428 1533 1460 1411 1415 1400 1543 1815 1977 2047 2048 2111 2122 2091 2088 2168 2200 2358 2430 2407 2386 2453 2753 2948 3074 2891 3123 2787 2770 2599 2534 2409 2302 2258 2115 2062 2038 1956 1855 1802
1326 1411 1857 1636 1607 1725 1374 1219 1186 1470 1639 1749 1859 1988 2064 2113 2131 2216 2133 2266 2594 2653 2393 2415 2559 2685 2696 2798 2823 2917 2694 2616 2604 2698 2370 2335 2229 2158 2121 2030 1922 1773
1203 1306 1662 1673 1588 1628 1466 1457 1541 1431 1494 1549 1692 1860 1973 2271 2192 2286 2171 2215 2374 2608 2563 2515 2556 2747 2775 2743 2757 2963 2989 2731 2672 2585 2598 2518 2495 2392 2219 2105 2030 2022
1145 1235 1510 1705 1609 1642 1698 1737 1857 1857 1716 1632 1629 1796 2003 2369 2291 2347 2289 2883 2324 2424 2575 2683 2742 2781 2914 2907 2886 2919 2903 2799 2702 2657 2674 2715 2665 2549 2330 2072 2264 2239
1139 1221 1407 1616 1704 1732 1780 1800 1840 1851 1906 1804 1676 1861 2208 2322 2355 2282 2330 2475 2519 2414 2490 2776 2820 2869 2994 3034 3061 3133 2996 2943 2927 3002 3070 2988 2786 2524 2341 2224 2242 2377
1168 1252 1479 1600 1708 1772 1816 1849 1822 1730 1920 1933 1909 2090 2122 2058 2170 2304 2312 2331 2439 2565 2594 2662 2886 3032 3040 3096 3091 3247 3270 3213 3206 3250 3281 3213 2997 2606 2344 2408 2353 2370
1191 1271 1451 1623 1711 1781 1845 1882 1895 1841 1848 2030 2041 2033 2176 2170 2114 2176 2242 2279 2309 2628 2638 2706 2765 3019 3147 3150 3062 3213 3195 3205 3282 3286 3290 3309 3197 2973 2736 2572 2552 2525
1052 1184 1270 1390 1628 1765 1870 1949 2014 2004 1953 2042 2080 2054 2045 2179 2238 2199 2247 2126 2262 2367 2584 2637 2677 2768 2927 3150 3133 3093 3181 3185 3247 3300 3341 3346 3270 3109 3032 3043 3033 2896
1048 1028 1044 1162 1396 1531 1718 1866 1973 2065 2091 2064 2074 2107 2110 2160 2188 2208 2251 2240 2284 2321 2348 2488 2615 2692 2798 3042 3162 3133 3158 3194 3292 3283 3292 3267 3198 3137 3028 2921 2912 2904
1336 1233 1158 1194 1277 1348 1464 1627 1818 1960 2078 2141 2163 2168 2184 2241 2294 2328 2334 2328 2315 2335 2406 2412 2429 2590 2759 2861 2998 3052 3112 3168 3196 3239 3202 3160 3089 3045 3038 2997 2923 2892
1503 1495 1427 1374 1345 1342 1363 1429 1540 1732 1875 2019 2087 2124 2152 2183 2201 2220 2253 2251 2264 2309 2361 2397 2371 2445 2660 2778 2907 3010 3042 3068 3133 3121 3139 3183 3139 3091 3221 3148 3084 3072
1523 1583 1620 1627 1618 1584 1553 1475 1441 1509 1610 1712 1818 1920 1994 2035 2036 2029 2000 1976 2031 2201 2258 2280 2252 2279 2488 2692 2809 2921 2981 3023 3078 3126 3100 3143 3156 3111 3063 3138 3091 3084
1587 1576 1600 1645 1665 1694 1689 1656 1586 1497 1513 1544 1572 1600 1634 1637 1598 1582 1596 1662 1756 1929 2124 2208 2195 2149 2234 2428 2608 2754 2868 2967 2938 3002 3068 3058 3080 3053 3002 2995 2986 2938
1959 1870 1737 1662 1661 1681 1691 1700 1676 1638 1620 1610 1587 1602 1637 1677 1698 1674 1676 1668 1648 1595 1846 2030 2112 2062 2046 2134 2315 2488 2588 2684 2792 2890 2888 2931 2942 3004 2902 2832 2821 2802
2112 2176 2172 2102 2031 1992 1960 1900 1830 1798 1784 1776 1760 1754 1741 1718 1678 1600 1559 1562 1490 1491 1636 1747 1829 1933 1970 1972 2028 2184 2317 2434 2548 2619 2683 2763 2749 2710 2700 2696 2702 2695
1537 1851 2049 2136 2163 2183 2152 2092 1995 1866 1799 1785 1765 1718 1680 1626 1492 1363 1305 1284 1297 1246 1344 1553 1681 1767 1838 1719 1793 2064 2042 2072 2197 2327 2429 2513 2602 2606 2468 2402 2414 2505
1362 1414 1459 1510 1470 1454 1550 1638 1680 1643 1617 1626 1606 1571 1624 1557 1362 1227 1108 1034 1003 954 958 1036 1465 1573 1568 1565 1628 1692 1908 1996 1952 2069 2164 2252 2283 2427 2435 2367 2254 2205
1447 1542 1568 1583 1597 1603 1584 1523 1460 1526 1580 1607 1674 1803 1917 1898 1743 1489 1214 1119 874 763 743 770 1080 1049 1116 1270 1401 1504 1583 1764 1892 1902 1892 1927 2007 2125 2226 2234 2235 2121
1135 1200 1294 1355 1466 1568 1559 1454 1466 1571 1616 1644 1687 1786 1930 1955 1898 1614 1382 1372 1357 1114 837 804 645 608 113 870 1059 1165 1251 1325 1468 1835 1828 1824 1836 1882 1979 2088 2164 2197
964 995 1010 1040 1092 1117 1119 1234 1360 1509 1612 1630 1674 1772 1859 1915 1813 1633 1355 1259 1470 1639 1676 1644 1573 1545 1592 1549 1322 1148 1011 981 1100 1256 1449 1683 1811 1812 1753 1873 1880 1889
879 876 898 950 988 1052 1128 1182 1260 1347 1412 1435 1338 1268 1340 1481 1502 1331 1174 963 999 1222 1467 1483 1576 1662 1751 1792 1625 1404 1306 1271 1178 1094 1048 1083 1234 1446 1630 1672 1788 1652
778 894 891 874 838 853 890 937 1020 1103 1155 1179 1168 1172 1165 1155 1083 1007 1014 986 924 917 919 995 1098 1264 1532 1679 1738 1730 1680 1501 1379 1339 1293 1220 1140 1079 1245 1528 1500 1454
698 776 900 867 790 756 798 796 786 815 836 903 907 883 920 943 1039 1024 1014 1024 1074 1102 1076 1022 952 881 1073 1404 1574 1653 1728 1803 1780 1610 1427 1344 1318 1265 1188 1124 1075 1302
538 700 772 792 807 867 814 779 732 715 752 810 784 802 840 930 999 1057 1114 1089 1050 1043 1105 1129 1133 1060 946 1144 1330 1440 1514 1622 1720 1747 1769 1694 1553 1424 1345 1319 1259 1175
395 420 522 545 567 599 612 603 619 647 634 593 640 631 683 787 927 968 955 909 910 909 878 927 1056 1050 1060 1075 1163 1245 1278 1302 1387 1527 1607 1684 1712 1701 1649 1538 1438 1396
283 303 325 374 256 428 494 459 398 398 408 383 369 332 361 389 460 557 690 776 759 687 653 758 917 942 997 917 972 1105 1166 1228 1254 1217 1248 1338 1406 1451 1514 1527 1546 1557
Wind_Speed
3 3 2 2 3 5 5 6 6 7 7 8 9 9 8 9 9 8 7 7 7 6 6 6 6 6 7 7 7 7 7 7 7 7 6 6 6 6 8 8 9 10
4 4 5 5 5 6 7 6 5 5 6 6 7 8 9 9 9 8 8 7 8 7 7 7 7 6 6 6 6 5 6 6 5 7 5 5 6 7 8 9 11 11
6 6 5 5 4 4 5 6 6 6 6 6 7 7 8 8 8 8 8 8 8 8 7 7 7 7 6 6 5 5 4 5 4 5 5 5 7 7 8 10 10 10
7 7 6 5 5 4 6 8 8 8 8 7 6 7 7 8 8 7 8 7 8 8 8 8 7 7 7 6 6 6 4 4 5 7 6 7 7 7 8 10 10 10
9 9 8 7 7 7 8 7 7 8 7 6 8 9 8 8 7 8 8 8 8 8 8 8 8 8 8 8 7 7 6 6 7 7 6 6 7 8 8 9 9 9
10 10 9 8 8 9 9 7 6 7 7 8 7 9 9 8 8 8 8 8 8 8 8 8 8 9 9 8 9 8 8 7 7 7 7 6 7 8 9 9 9 9
10 10 10 11 11 11 10 8 8 8 7 7 11 10 11 10 9 8 9 9 8 8 8 8 8 8 9 9 9 8 8 8 8 8 6 7 8 7 8 8 8 8
11 11 10 11 11 12 11 11 11 10 9 9 8 9 10 10 10 10 10 10 9 8 8 9 8 8 9 9 8 8 8 10 9 9 7 7 7 7 7 8 8 8
13 12 11 10 10 12 12 12 12 11 11 9 8 8 9 9 9 10 10 11 10 9 9 9 8 8 10 9 9 8 8 9 10 9 8 8 6 5 6 8 8 7
14 14 13 13 13 14 13 13 14 13 13 11 9 9 9 9 9 9 10 10 10 9 10 9 9 9 9 9 8 8 9 8 9 9 9 8 7 7 8 8 7 7
17 17 15 15 16 17 16 16 15 15 14 12 11 11 10 10 10 11 10 10 10 9 9 9 9 9 9 9 9 9 9 9 10 10 10 9 9 8 9 9 8 7
19 19 18 17 18 18 17 17 17 16 15 15 14 13 13 13 12 13 13 11 10 9 9 9 9 10 10 9 9 9 9 9 10 10 10 10 10 10 10 10 10 9
21 21 22 21 19 18 18 17 15 15 16 16 17 16 15 15 15 15 15 15 13 13 12 11 10 11 11 10 10 10 9 9 9 9 10 11 11 11 11 11 11 10
26 28 27 26 24 21 18 17 17 17 17 18 19 18 17 16 17 16 17 17 16 15 14 14 13 14 14 13 13 12 11 10 9 9 9 10 10 11 12 12 12 11
28 27 27 26 25 24 22 21 21 22 24 24 23 22 22 21 21 20 20 19 18 17 17 17 17 16 17 17 15 14 13 11 10 9 9 9 10 10 11 12 12 12
31 29 27 26 27 27 27 27 27 26 26 26 26 25 25 26 26 24 21 19 19 19 19 20 19 20 17 14 14 16 15 14 13 11 10 10 9 10 10 11 11 11
33 31 29 30 31 32 31 29 28 28 29 28 27 27 27 27 27 27 25 23 22 21 20 20 21 21 16 15 14 12 15 16 14 13 12 11 11 10 10 11 11 11
35 34 33 33 33 32 30 30 32 33 33 32 30 29 27 26 26 26 25 25 24 24 22 21 20 20 18 17 16 14 15 16 16 15 15 14 13 12 12 13 12 13
36 38 37 35 34 34 33 33 33 32 33 33 32 31 29 28 27 27 28 28 27 27 26 25 25 27 27 23 19 17 16 16 17 16 16 15 15 15 15 15 15 15
34 36 38 37 36 35 35 35 35 34 34 35 35 35 34 33 32 31 31 31 31 30 29 29 30 31 31 30 30 27 23 20 19 18 16 16 17 17 18 17 17 17
31 34 36 37 38 38 38 38 36 34 35 35 35 35 36 36 35 35 33 33 33 33 32 33 34 38 37 34 33 32 31 25 23 21 20 18 18 19 19 19 19 18
27 29 32 34 36 36 37 38 37 35 35 35 35 35 34 36 37 36 36 37 35 35 34 36 37 42 39 38 36 34 32 30 28 25 23 22 22 22 22 22 21 20
24 24 26 30 33 35 35 36 37 38 38 37 37 36 37 40 40 38 36 37 38 38 38 38 37 40 41 40 38 36 32 31 29 27 25 24 23 23 22 22 23 23
29 27 25 25 27 28 29 32 35 38 40 40 40 41 42 43 41 41 40 41 43 43 41 40 39 41 43 43 43 39 34 32 30 28 26 25 24 23 23 23 23 22
33 31 29 30 30 27 25 27 30 31 32 34 36 37 40 41 42 40 40 42 44 44 46 43 42 41 43 44 46 42 35 33 32 31 30 29 27 25 25 24 24 25
32 32 30 32 33 32 31 29 28 26 26 27 29 30 32 34 35 38 40 39 40 43 43 42 41 39 41 44 45 45 40 35 35 34 31 29 27 27 27 27 26 26
Wind_Direction
208 200 189 197 199 199 197 192 185 183 175 186 182 175 173 171 180 177 170 176 177 177 179 186 191 190 195 198 198 198 197 193 197 202 193 198 197 197 188 194 195 197
220 218 198 201 213 218 211 203 205 187 174 180 178 182 184 192 184 188 184 182 185 180 187 193 195 197 202 209 216 218 215 223 210 221 214 199 195 204 193 197 197 198
225 228 227 224 218 232 235 224 220 205 197 188 200 200 196 196 199 194 193 194 191 187 191 194 195 194 200 206 220 224 231 243 228 234 233 208 216 212 200 213 208 202
222 227 232 232 224 224 227 232 224 222 216 214 207 213 214 205 211 207 206 202 204 194 192 198 196 195 197 198 211 209 215 226 231 242 234 226 227 227 212 222 220 215
226 223 222 227 229 230 229 225 226 230 230 222 223 228 228 225 223 216 219 214 216 207 204 200 202 198 199 200 207 203 205 206 217 232 230 216 223 233 227 230 221 211
218 222 227 229 233 240 235 226 220 229 227 232 234 236 236 237 228 225 227 225 219 219 216 212 210 209 209 207 209 204 204 208 211 226 220 211 210 228 228 235 231 221
226 225 224 224 231 237 240 232 225 222 220 217 233 234 242 242 238 232 233 232 227 225 226 225 225 221 224 224 221 210 209 206 213 224 221 211 213 209 227 236 237 232
223 227 227 227 232 235 236 236 232 225 219 221 223 226 240 241 244 238 239 242 238 236 236 232 231 229 229 232 230 226 215 220 219 225 222 216 222 209 219 232 236 234
225 221 222 224 229 232 232 234 235 234 232 228 216 219 229 233 238 241 245 248 246 244 246 244 241 235 234 235 233 233 229 227 228 231 227 224 225 218 221 230 231 235
232 223 222 219 219 221 224 227 229 233 239 237 227 222 227 225 231 235 239 243 245 245 249 251 252 249 247 246 243 240 238 236 239 238 236 232 228 224 228 237 236 230
238 232 226 221 218 218 217 221 220 222 230 235 234 228 225 230 228 232 232 235 235 240 247 253 258 260 260 258 256 253 249 245 245 246 246 244 241 238 237 245 245 245
239 238 233 229 226 225 224 224 222 219 223 225 230 230 227 226 230 232 234 232 230 229 238 242 249 257 262 262 262 262 258 253 250 249 252 253 252 249 249 252 250 251
234 238 237 235 233 230 230 233 235 232 229 227 228 227 228 225 229 233 234 235 230 230 231 237 243 251 256 260 259 259 260 258 252 253 253 256 258 258 255 255 255 253
230 235 240 241 241 239 237 233 232 234 235 232 229 225 224 224 227 233 237 241 240 238 235 234 236 242 247 251 252 255 255 254 255 254 254 255 256 259 260 261 261 259
232 234 239 243 244 242 239 237 234 232 232 234 236 233 229 225 224 226 231 236 239 242 242 241 239 240 244 247 251 253 253 252 254 255 255 254 254 256 260 262 262 262
240 238 237 241 244 243 239 236 237 237 238 237 236 235 234 232 229 229 232 234 238 241 245 245 244 245 249 262 260 254 256 252 250 250 251 253 256 257 261 267 270 270
243 242 239 240 242 243 240 238 237 238 239 239 237 235 234 233 233 232 230 233 237 238 242 245 246 249 256 264 267 269 258 259 257 252 251 248 251 258 260 266 270 274
244 244 241 239 242 244 243 239 236 236 236 236 236 235 234 235 236 236 236 234 238 242 243 243 245 244 244 248 253 256 255 250 251 250 250 247 245 248 251 255 259 262
242 242 240 238 239 241 241 239 238 238 238 237 237 239 239 236 235 237 238 238 238 238 239 239 239 237 233 234 241 252 259 254 244 248 249 249 248 246 246 246 248 251
237 237 237 236 238 239 240 240 237 237 237 236 236 238 239 239 238 236 236 237 237 238 239 240 242 240 237 236 236 238 245 258 250 248 247 245 247 248 249 251 254 256
232 231 233 232 231 233 235 236 238 237 237 236 235 237 239 241 241 242 241 239 237 237 239 240 238 231 238 241 241 241 243 254 248 246 245 244 245 248 250 252 254 258
235 238 240 238 235 233 233 234 235 235 236 237 241 243 245 246 244 246 245 243 241 239 238 239 237 231 231 234 239 242 248 253 250 247 244 240 240 241 244 249 252 255
243 240 245 243 240 240 237 234 233 234 236 238 244 248 250 248 245 243 242 241 239 237 241 244 241 235 234 236 236 238 247 251 250 249 247 245 245 245 244 244 246 249
245 246 247 245 236 231 232 231 232 233 235 237 242 245 245 244 242 241 239 238 236 237 241 246 244 238 236 236 238 238 244 248 248 246 244 243 244 246 247 248 247 240
252 249 248 248 244 237 231 230 228 228 231 236 239 241 243 244 242 241 241 239 237 236 236 241 246 243 236 236 235 234 240 247 247 246 243 240 242 245 248 250 251 251
248 252 248 248 249 247 245 242 241 237 233 236 236 235 238 239 240 240 242 241 240 239 238 237 241 244 238 232 232 229 230 242 246 247 243 242 244 247 249 251 252 252